Time,TemperatureF,DewpointF,PressureIn,WindDirection,WindDirectionDegrees,WindSpeedMPH,WindSpeedGustMPH,Humidity,HourlyPrecipIn,Conditions,Clouds,dailyrainin,SoftwareType,DateUTC
2013-06-15 00:01:00,82.5,74.1,29.87,South,176,2.0,3.0,76,0.00,,,0.00,LWC2 V0.39 B123,2013-06-15 06:01:00,
2013-06-15 00:06:00,82.3,74.0,29.87,South,184,2.0,3.0,76,0.00,,,0.00,LWC2 V0.39 B123,2013-06-15 06:06:00,
2013-06-15 00:11:00,82.1,73.8,29.87,SE,124,0.0,3.0,76,0.00,,,0.00,LWC2 V0.39 B123,2013-06-15 06:11:00,
2013-06-15 00:16:00,82.0,74.1,29.87,SW,236,0.0,3.0,77,0.00,,,0.00,LWC2 V0.39 B123,2013-06-15 06:16:00,
2013-06-15 00:21:00,81.9,74.0,29.87,SW,226,0.0,4.0,77,0.00,,,0.00,LWC2 V0.39 B123,2013-06-15 06:21:00,
2013-06-15 00:26:00,81.8,73.9,29.87,South,174,2.0,2.0,77,0.00,,,0.00,LWC2 V0.39 B123,2013-06-15 06:26:00,
2013-06-15 00:31:00,81.8,73.5,29.87,South,190,2.0,5.0,76,0.00,,,0.00,LWC2 V0.39 B123,2013-06-15 06:31:00,
2013-06-15 00:36:00,81.9,73.6,29.87,SSE,162,2.0,2.0,76,0.00,,,0.00,LWC2 V0.39 B123,2013-06-15 06:36:00,
2013-06-15 00:41:00,82.0,73.7,29.87,ESE,108,4.0,4.0,76,0.00,,,0.00,LWC2 V0.39 B123,2013-06-15 06:41:00,
2013-06-15 00:46:00,82.0,73.3,29.87,ESE,116,1.0,6.0,75,0.00,,,0.00,LWC2 V0.39 B123,2013-06-15 06:46:00,
2013-06-15 00:51:00,82.0,73.3,29.87,WSW,239,6.0,6.0,75,0.00,,,0.00,LWC2 V0.39 B123,2013-06-15 06:51:00,
2013-06-15 00:56:00,82.0,73.3,29.87,SW,236,0.0,4.0,75,0.00,,,0.00,LWC2 V0.39 B123,2013-06-15 06:56:00,
2013-06-15 01:01:00,82.0,73.3,29.87,South,181,2.0,4.0,75,0.00,,,0.00,LWC2 V0.39 B123,2013-06-15 07:01:00,
2013-06-15 01:06:00,81.9,73.2,29.87,SSW,194,2.0,4.0,75,0.00,,,0.00,LWC2 V0.39 B123,2013-06-15 07:06:00,
2013-06-15 01:11:00,81.9,73.2,29.86,SE,140,1.0,4.0,75,0.00,,,0.00,LWC2 V0.39 B123,2013-06-15 07:11:00,
2013-06-15 01:16:00,81.9,73.6,29.87,SSE,167,1.0,4.0,76,0.00,,,0.00,LWC2 V0.39 B123,2013-06-15 07:16:00,
2013-06-15 01:21:00,81.8,73.5,29.86,WSW,251,4.0,4.0,76,0.00,,,0.00,LWC2 V0.39 B123,2013-06-15 07:21:00,
2013-06-15 01:26:00,81.7,73.4,29.86,WSW,243,1.0,5.0,76,0.00,,,0.00,LWC2 V0.39 B123,2013-06-15 07:26:00,
2013-06-15 01:31:00,81.7,73.8,29.87,WSW,252,2.0,3.0,77,0.00,,,0.00,LWC2 V0.39 B123,2013-06-15 07:31:00,
2013-06-15 01:36:00,81.6,73.7,29.87,SSE,163,2.0,3.0,77,0.00,,,0.00,LWC2 V0.39 B123,2013-06-15 07:36:00,
2013-06-15 01:41:00,81.6,74.1,29.87,South,186,2.0,6.0,78,0.00,,,0.00,LWC2 V0.39 B123,2013-06-15 07:41:00,
2013-06-15 01:46:00,81.6,74.1,29.87,SW,224,3.0,6.0,78,0.00,,,0.00,LWC2 V0.39 B123,2013-06-15 07:46:00,
2013-06-15 01:51:00,81.6,74.4,29.87,South,176,2.0,4.0,79,0.00,,,0.00,LWC2 V0.39 B123,2013-06-15 07:51:00,
2013-06-15 01:56:00,81.8,74.6,29.87,WSW,245,7.0,7.0,79,0.00,,,0.00,LWC2 V0.39 B123,2013-06-15 07:56:00,
2013-06-15 02:01:00,81.9,74.7,29.87,SSE,163,2.0,5.0,79,0.00,,,0.00,LWC2 V0.39 B123,2013-06-15 08:01:00,
2013-06-15 02:06:00,82.0,74.8,29.87,SW,228,5.0,7.0,79,0.00,,,0.00,LWC2 V0.39 B123,2013-06-15 08:06:00,
2013-06-15 02:11:00,82.0,74.8,29.87,SW,224,6.0,10.0,79,0.00,,,0.00,LWC2 V0.39 B123,2013-06-15 08:11:00,
2013-06-15 02:16:00,81.9,74.7,29.87,SSW,203,2.0,9.0,79,0.00,,,0.00,LWC2 V0.39 B123,2013-06-15 08:16:00,
2013-06-15 02:21:00,81.8,75.0,29.87,SW,217,0.0,4.0,80,0.00,,,0.00,LWC2 V0.39 B123,2013-06-15 08:21:00,
2013-06-15 02:26:00,81.7,74.9,29.87,South,183,2.0,7.0,80,0.00,,,0.00,LWC2 V0.39 B123,2013-06-15 08:26:00,
2013-06-15 02:31:00,81.5,75.1,29.87,South,191,2.0,4.0,81,0.00,,,0.00,LWC2 V0.39 B123,2013-06-15 08:31:00,
2013-06-15 02:36:00,81.5,75.5,29.86,SSE,158,2.0,5.0,82,0.00,,,0.00,LWC2 V0.39 B123,2013-06-15 08:36:00,
2013-06-15 02:41:00,81.4,75.4,29.87,South,186,1.0,4.0,82,0.00,,,0.00,LWC2 V0.39 B123,2013-06-15 08:41:00,
2013-06-15 02:46:00,81.3,75.3,29.87,SW,215,2.0,2.0,82,0.00,,,0.00,LWC2 V0.39 B123,2013-06-15 08:46:00,
2013-06-15 02:51:00,81.1,75.4,29.87,SE,141,2.0,5.0,83,0.00,,,0.00,LWC2 V0.39 B123,2013-06-15 08:51:00,
2013-06-15 02:56:00,80.9,75.2,29.87,SW,222,1.0,2.0,83,0.00,,,0.00,LWC2 V0.39 B123,2013-06-15 08:56:00,
2013-06-15 03:01:00,80.7,75.4,29.87,South,176,1.0,2.0,84,0.00,,,0.00,LWC2 V0.39 B123,2013-06-15 09:01:00,
2013-06-15 03:06:00,80.5,75.2,29.87,SE,141,2.0,6.0,84,0.00,,,0.00,LWC2 V0.39 B123,2013-06-15 09:06:00,
2013-06-15 03:11:00,80.5,75.6,29.87,SE,131,2.0,4.0,85,0.00,,,0.00,LWC2 V0.39 B123,2013-06-15 09:11:00,
2013-06-15 03:16:00,80.5,75.6,29.87,SSW,194,2.0,5.0,85,0.00,,,0.00,LWC2 V0.39 B123,2013-06-15 09:16:00,
2013-06-15 03:21:00,80.5,75.6,29.87,South,190,4.0,5.0,85,0.00,,,0.00,LWC2 V0.39 B123,2013-06-15 09:21:00,
2013-06-15 03:26:00,80.5,75.6,29.87,SE,143,0.0,2.0,85,0.00,,,0.00,LWC2 V0.39 B123,2013-06-15 09:26:00,
2013-06-15 03:31:00,80.4,75.5,29.88,SE,139,1.0,3.0,85,0.00,,,0.00,LWC2 V0.39 B123,2013-06-15 09:31:00,
2013-06-15 03:36:00,80.3,75.4,29.88,SE,145,1.0,5.0,85,0.00,,,0.00,LWC2 V0.39 B123,2013-06-15 09:36:00,
2013-06-15 03:41:00,80.3,75.4,29.88,West,262,2.0,5.0,85,0.00,,,0.00,LWC2 V0.39 B123,2013-06-15 09:41:00,
2013-06-15 03:46:00,80.2,75.3,29.88,South,186,3.0,3.0,85,0.00,,,0.00,LWC2 V0.39 B123,2013-06-15 09:46:00,
2013-06-15 03:51:00,80.2,75.6,29.88,SSW,193,4.0,6.0,86,0.00,,,0.00,LWC2 V0.39 B123,2013-06-15 09:51:00,
2013-06-15 03:56:00,80.2,75.6,29.88,South,169,5.0,7.0,86,0.00,,,0.00,LWC2 V0.39 B123,2013-06-15 09:56:00,
2013-06-15 04:01:00,80.2,75.3,29.88,SE,125,1.0,5.0,85,0.00,,,0.00,LWC2 V0.39 B123,2013-06-15 10:01:00,
2013-06-15 04:06:00,80.1,75.5,29.88,SSE,154,5.0,5.0,86,0.00,,,0.00,LWC2 V0.39 B123,2013-06-15 10:06:00,
2013-06-15 04:11:00,80.0,75.4,29.88,South,180,2.0,6.0,86,0.00,,,0.00,LWC2 V0.39 B123,2013-06-15 10:11:00,
2013-06-15 04:16:00,79.9,75.3,29.89,SSW,210,2.0,5.0,86,0.00,,,0.00,LWC2 V0.39 B123,2013-06-15 10:16:00,
2013-06-15 04:21:00,79.9,75.3,29.88,SSE,159,2.0,4.0,86,0.00,,,0.00,LWC2 V0.39 B123,2013-06-15 10:21:00,
2013-06-15 04:26:00,79.8,75.2,29.89,ESE,113,1.0,2.0,86,0.00,,,0.00,LWC2 V0.39 B123,2013-06-15 10:26:00,
2013-06-15 04:31:00,79.6,75.0,29.89,SSW,197,1.0,2.0,86,0.00,,,0.00,LWC2 V0.39 B123,2013-06-15 10:31:00,
2013-06-15 04:36:00,79.5,75.3,29.89,South,177,2.0,3.0,87,0.00,,,0.00,LWC2 V0.39 B123,2013-06-15 10:36:00,
2013-06-15 04:41:00,79.4,75.2,29.89,SE,125,3.0,4.0,87,0.00,,,0.00,LWC2 V0.39 B123,2013-06-15 10:41:00,
2013-06-15 04:46:00,79.3,75.1,29.89,ESE,115,2.0,4.0,87,0.00,,,0.00,LWC2 V0.39 B123,2013-06-15 10:46:00,
2013-06-15 04:51:00,79.2,75.0,29.89,SSW,200,2.0,3.0,87,0.00,,,0.00,LWC2 V0.39 B123,2013-06-15 10:51:00,
2013-06-15 04:56:00,79.2,75.0,29.89,SE,146,1.0,4.0,87,0.00,,,0.00,LWC2 V0.39 B123,2013-06-15 10:56:00,
2013-06-15 05:01:00,79.1,74.9,29.89,SW,234,2.0,4.0,87,0.00,,,0.00,LWC2 V0.39 B123,2013-06-15 11:01:00,
2013-06-15 05:06:00,79.1,74.9,29.89,South,188,0.0,6.0,87,0.00,,,0.00,LWC2 V0.39 B123,2013-06-15 11:06:00,
2013-06-15 05:11:00,79.1,74.9,29.89,SE,142,3.0,4.0,87,0.00,,,0.00,LWC2 V0.39 B123,2013-06-15 11:11:00,
2013-06-15 05:16:00,79.1,74.9,29.89,SSE,164,1.0,3.0,87,0.00,,,0.00,LWC2 V0.39 B123,2013-06-15 11:16:00,
2013-06-15 05:21:00,79.0,75.1,29.90,ESE,119,1.0,2.0,88,0.00,,,0.00,LWC2 V0.39 B123,2013-06-15 11:21:00,
2013-06-15 05:26:00,78.9,75.0,29.90,South,172,0.0,2.0,88,0.00,,,0.00,LWC2 V0.39 B123,2013-06-15 11:26:00,
2013-06-15 05:31:00,78.8,74.9,29.90,SE,134,0.0,2.0,88,0.00,,,0.00,LWC2 V0.39 B123,2013-06-15 11:31:00,
2013-06-15 05:36:00,78.7,74.8,29.90,SE,132,0.0,0.0,88,0.00,,,0.00,LWC2 V0.39 B123,2013-06-15 11:36:00,
2013-06-15 05:41:00,78.7,75.2,29.90,ESE,112,1.0,3.0,89,0.00,,,0.00,LWC2 V0.39 B123,2013-06-15 11:41:00,
2013-06-15 05:46:00,78.6,75.1,29.90,SE,124,2.0,4.0,89,0.00,,,0.00,LWC2 V0.39 B123,2013-06-15 11:46:00,
2013-06-15 05:51:00,78.6,75.1,29.90,ESE,120,2.0,3.0,89,0.00,,,0.00,LWC2 V0.39 B123,2013-06-15 11:51:00,
2013-06-15 05:56:00,78.6,75.1,29.90,WSW,238,4.0,4.0,89,0.00,,,0.00,LWC2 V0.39 B123,2013-06-15 11:56:00,
2013-06-15 06:01:00,78.6,75.1,29.90,ESE,110,2.0,2.0,89,0.00,,,0.00,LWC2 V0.39 B123,2013-06-15 12:01:00,
2013-06-15 06:06:00,78.6,75.1,29.90,SE,128,2.0,3.0,89,0.00,,,0.00,LWC2 V0.39 B123,2013-06-15 12:06:00,
2013-06-15 06:11:00,78.7,75.2,29.90,SW,236,2.0,2.0,89,0.00,,,0.00,LWC2 V0.39 B123,2013-06-15 12:11:00,
2013-06-15 06:16:00,78.7,74.8,29.91,WSW,239,4.0,4.0,88,0.00,,,0.00,LWC2 V0.39 B123,2013-06-15 12:16:00,
2013-06-15 06:21:00,78.8,74.9,29.91,SSE,158,1.0,4.0,88,0.00,,,0.00,LWC2 V0.39 B123,2013-06-15 12:21:00,
2013-06-15 06:26:00,78.9,75.0,29.91,ESE,108,5.0,6.0,88,0.00,,,0.00,LWC2 V0.39 B123,2013-06-15 12:26:00,
2013-06-15 06:31:00,78.9,74.7,29.91,South,186,4.0,6.0,87,0.00,,,0.00,LWC2 V0.39 B123,2013-06-15 12:31:00,
2013-06-15 06:36:00,79.0,74.8,29.91,SW,228,2.0,6.0,87,0.00,,,0.00,LWC2 V0.39 B123,2013-06-15 12:36:00,
2013-06-15 06:41:00,79.1,74.9,29.91,ESE,119,2.0,2.0,87,0.00,,,0.00,LWC2 V0.39 B123,2013-06-15 12:41:00,
2013-06-15 06:46:00,79.2,74.6,29.91,SE,125,2.0,2.0,86,0.00,,,0.00,LWC2 V0.39 B123,2013-06-15 12:46:00,
2013-06-15 06:51:00,79.4,74.5,29.91,SE,137,3.0,6.0,85,0.00,,,0.00,LWC2 V0.39 B123,2013-06-15 12:51:00,
2013-06-15 06:56:00,79.7,74.8,29.91,East,98,2.0,5.0,85,0.00,,,0.00,LWC2 V0.39 B123,2013-06-15 12:56:00,
2013-06-15 07:01:00,79.9,74.6,29.91,SE,143,1.0,5.0,84,0.00,,,0.00,LWC2 V0.39 B123,2013-06-15 13:01:00,
2013-06-15 07:06:00,80.1,74.5,29.91,SE,146,6.0,6.0,83,0.00,,,0.00,LWC2 V0.39 B123,2013-06-15 13:06:00,
2013-06-15 07:11:00,80.1,74.5,29.92,SSE,147,2.0,5.0,83,0.00,,,0.00,LWC2 V0.39 B123,2013-06-15 13:11:00,
2013-06-15 07:16:00,80.2,74.6,29.92,ESE,110,1.0,7.0,83,0.00,,,0.00,LWC2 V0.39 B123,2013-06-15 13:16:00,
2013-06-15 07:21:00,80.2,74.6,29.91,South,183,5.0,7.0,83,0.00,,,0.00,LWC2 V0.39 B123,2013-06-15 13:21:00,
2013-06-15 07:26:00,80.2,74.6,29.92,SSW,212,3.0,5.0,83,0.00,,,0.00,LWC2 V0.39 B123,2013-06-15 13:26:00,
2013-06-15 07:31:00,80.4,74.7,29.92,WSW,249,4.0,5.0,83,0.00,,,0.00,LWC2 V0.39 B123,2013-06-15 13:31:00,
2013-06-15 07:36:00,80.5,74.8,29.92,SSE,167,3.0,3.0,83,0.00,,,0.00,LWC2 V0.39 B123,2013-06-15 13:36:00,
2013-06-15 07:41:00,80.6,74.6,29.92,SSE,148,1.0,5.0,82,0.00,,,0.00,LWC2 V0.39 B123,2013-06-15 13:41:00,
2013-06-15 07:46:00,80.8,74.8,29.92,SSW,207,2.0,2.0,82,0.00,,,0.00,LWC2 V0.39 B123,2013-06-15 13:46:00,
2013-06-15 07:51:00,81.2,75.5,29.92,SSE,165,1.0,4.0,83,0.00,,,0.00,LWC2 V0.39 B123,2013-06-15 13:51:00,
2013-06-15 07:56:00,81.4,75.0,29.92,SE,132,2.0,4.0,81,0.00,,,0.00,LWC2 V0.39 B123,2013-06-15 13:56:00,
2013-06-15 08:01:00,81.5,75.5,29.92,ESE,113,2.0,3.0,82,0.00,,,0.00,LWC2 V0.39 B123,2013-06-15 14:01:00,
2013-06-15 08:06:00,81.6,74.8,29.92,SSW,211,4.0,8.0,80,0.00,,,0.00,LWC2 V0.39 B123,2013-06-15 14:06:00,
2013-06-15 08:11:00,82.0,75.2,29.93,SW,221,2.0,9.0,80,0.00,,,0.00,LWC2 V0.39 B123,2013-06-15 14:11:00,
2013-06-15 08:16:00,82.1,74.9,29.93,SSW,199,3.0,8.0,79,0.00,,,0.00,LWC2 V0.39 B123,2013-06-15 14:16:00,
2013-06-15 08:21:00,82.2,75.4,29.92,South,190,4.0,5.0,80,0.00,,,0.00,LWC2 V0.39 B123,2013-06-15 14:21:00,
2013-06-15 08:26:00,82.9,75.7,29.92,South,169,4.0,7.0,79,0.00,,,0.00,LWC2 V0.39 B123,2013-06-15 14:26:00,
2013-06-15 08:31:00,82.7,75.1,29.92,South,176,7.0,11.0,78,0.00,,,0.00,LWC2 V0.39 B123,2013-06-15 14:31:00,
2013-06-15 08:36:00,82.3,74.7,29.92,SSW,204,3.0,10.0,78,0.00,,,0.00,LWC2 V0.39 B123,2013-06-15 14:36:00,
2013-06-15 08:41:00,82.3,75.5,29.92,South,178,4.0,6.0,80,0.00,,,0.00,LWC2 V0.39 B123,2013-06-15 14:41:00,
2013-06-15 08:46:00,82.3,75.1,29.92,South,183,2.0,3.0,79,0.00,,,0.00,LWC2 V0.39 B123,2013-06-15 14:46:00,
2013-06-15 08:51:00,82.4,74.8,29.91,SW,235,4.0,5.0,78,0.00,,,0.00,LWC2 V0.39 B123,2013-06-15 14:51:00,
2013-06-15 08:56:00,82.5,74.9,29.91,South,174,3.0,5.0,78,0.00,,,0.00,LWC2 V0.39 B123,2013-06-15 14:56:00,
2013-06-15 09:01:00,82.5,74.9,29.91,South,184,1.0,8.0,78,0.00,,,0.00,LWC2 V0.39 B123,2013-06-15 15:01:00,
2013-06-15 09:06:00,82.4,75.6,29.90,WSW,253,2.0,4.0,80,0.00,,,0.00,LWC2 V0.39 B123,2013-06-15 15:06:00,
2013-06-15 09:11:00,82.5,75.3,29.90,SW,225,4.0,8.0,79,0.00,,,0.00,LWC2 V0.39 B123,2013-06-15 15:11:00,
2013-06-15 09:16:00,82.5,75.3,29.90,WSW,240,3.0,7.0,79,0.00,,,0.00,LWC2 V0.39 B123,2013-06-15 15:16:00,
2013-06-15 09:21:00,82.4,75.2,29.90,SSE,159,1.0,5.0,79,0.00,,,0.00,LWC2 V0.39 B123,2013-06-15 15:21:00,
2013-06-15 09:26:00,82.1,75.3,29.90,WSW,245,5.0,5.0,80,0.00,,,0.00,LWC2 V0.39 B123,2013-06-15 15:26:00,
2013-06-15 09:31:00,81.9,75.1,29.90,SSE,159,2.0,6.0,80,0.00,,,0.00,LWC2 V0.39 B123,2013-06-15 15:31:00,
2013-06-15 09:36:00,81.6,75.2,29.90,SSW,212,3.0,5.0,81,0.00,,,0.00,LWC2 V0.39 B123,2013-06-15 15:36:00,
2013-06-15 09:41:00,81.5,75.1,29.90,SE,138,2.0,6.0,81,0.00,,,0.00,LWC2 V0.39 B123,2013-06-15 15:41:00,
2013-06-15 09:46:00,81.4,75.4,29.90,SE,145,3.0,5.0,82,0.00,,,0.00,LWC2 V0.39 B123,2013-06-15 15:46:00,
2013-06-15 09:51:00,81.1,75.1,29.90,South,187,2.0,6.0,82,0.00,,,0.00,LWC2 V0.39 B123,2013-06-15 15:51:00,
2013-06-15 09:56:00,80.9,74.9,29.90,South,177,6.0,6.0,82,0.00,,,0.00,LWC2 V0.39 B123,2013-06-15 15:56:00,
2013-06-15 10:01:00,80.8,74.8,29.90,South,190,3.0,6.0,82,0.00,,,0.00,LWC2 V0.39 B123,2013-06-15 16:01:00,
2013-06-15 10:06:00,80.8,75.1,29.90,ESE,115,1.0,3.0,83,0.00,,,0.00,LWC2 V0.39 B123,2013-06-15 16:06:00,
2013-06-15 10:11:00,80.9,74.9,29.90,SSE,160,1.0,4.0,82,0.00,,,0.00,LWC2 V0.39 B123,2013-06-15 16:11:00,
2013-06-15 10:16:00,81.2,75.5,29.91,SSW,201,4.0,7.0,83,0.00,,,0.00,LWC2 V0.39 B123,2013-06-15 16:16:00,
2013-06-15 10:21:00,81.7,75.7,29.91,ESE,113,4.0,5.0,82,0.00,,,0.00,LWC2 V0.39 B123,2013-06-15 16:21:00,
2013-06-15 10:26:00,82.0,75.6,29.91,SW,215,3.0,6.0,81,0.00,,,0.00,LWC2 V0.39 B123,2013-06-15 16:26:00,
2013-06-15 10:31:00,82.3,75.9,29.90,South,183,6.0,9.0,81,0.00,,,0.00,LWC2 V0.39 B123,2013-06-15 16:31:00,
2013-06-15 10:36:00,83.4,76.9,29.90,SSW,193,3.0,7.0,81,0.00,,,0.00,LWC2 V0.39 B123,2013-06-15 16:36:00,
2013-06-15 10:41:00,84.8,77.2,29.90,SSW,199,8.0,8.0,78,0.00,,,0.00,LWC2 V0.39 B123,2013-06-15 16:41:00,
2013-06-15 10:46:00,85.7,77.2,29.90,SSE,153,3.0,9.0,76,0.00,,,0.00,LWC2 V0.39 B123,2013-06-15 16:46:00,
2013-06-15 10:51:00,86.5,77.2,29.90,South,173,4.0,10.0,74,0.00,,,0.00,LWC2 V0.39 B123,2013-06-15 16:51:00,
2013-06-15 10:56:00,87.0,77.7,29.89,SSE,161,5.0,6.0,74,0.00,,,0.00,LWC2 V0.39 B123,2013-06-15 16:56:00,
2013-06-15 11:01:00,87.5,78.6,29.89,WSW,242,3.0,8.0,75,0.00,,,0.00,LWC2 V0.39 B123,2013-06-15 17:01:00,
2013-06-15 11:06:00,87.7,77.5,29.90,SW,233,8.0,8.0,72,0.00,,,0.00,LWC2 V0.39 B123,2013-06-15 17:06:00,
2013-06-15 11:11:00,87.2,77.0,29.89,SSW,203,7.0,8.0,72,0.00,,,0.00,LWC2 V0.39 B123,2013-06-15 17:11:00,
2013-06-15 11:16:00,87.9,77.7,29.90,WNW,290,6.0,13.0,72,0.00,,,0.00,LWC2 V0.39 B123,2013-06-15 17:16:00,
2013-06-15 11:21:00,87.7,77.1,29.91,SW,217,10.0,11.0,71,0.00,,,0.00,LWC2 V0.39 B123,2013-06-15 17:21:00,
2013-06-15 11:26:00,86.2,76.5,29.91,South,179,5.0,10.0,73,0.00,,,0.00,LWC2 V0.39 B123,2013-06-15 17:26:00,
2013-06-15 11:31:00,85.4,76.5,29.91,WSW,238,5.0,9.0,75,0.00,,,0.00,LWC2 V0.39 B123,2013-06-15 17:31:00,
2013-06-15 11:36:00,84.8,76.4,29.91,SE,138,3.0,6.0,76,0.00,,,0.00,LWC2 V0.39 B123,2013-06-15 17:36:00,
2013-06-15 11:41:00,84.4,76.8,29.91,SSE,166,3.0,7.0,78,0.00,,,0.00,LWC2 V0.39 B123,2013-06-15 17:41:00,
2013-06-15 11:46:00,83.9,76.3,29.90,SW,232,4.0,6.0,78,0.00,,,0.00,LWC2 V0.39 B123,2013-06-15 17:46:00,
2013-06-15 11:51:00,83.3,75.3,29.89,WSW,250,5.0,11.0,77,0.00,,,0.00,LWC2 V0.39 B123,2013-06-15 17:51:00,
2013-06-15 11:56:00,82.8,74.8,29.90,WSW,247,4.0,10.0,77,0.00,,,0.00,LWC2 V0.39 B123,2013-06-15 17:56:00,
2013-06-15 12:01:00,82.3,74.3,29.91,SW,226,7.0,12.0,77,0.00,,,0.00,LWC2 V0.39 B123,2013-06-15 18:01:00,
2013-06-15 12:06:00,81.6,72.1,29.92,SW,231,8.0,9.0,73,0.00,,,0.00,LWC2 V0.39 B123,2013-06-15 18:06:00,
2013-06-15 12:11:00,81.1,72.0,29.92,SSW,211,5.0,7.0,74,0.00,,,0.00,LWC2 V0.39 B123,2013-06-15 18:11:00,
2013-06-15 12:16:00,80.7,71.2,29.92,SSW,207,9.0,10.0,73,0.00,,,0.00,LWC2 V0.39 B123,2013-06-15 18:16:00,
2013-06-15 12:21:00,80.0,71.3,29.92,WSW,241,5.0,13.0,75,0.00,,,0.00,LWC2 V0.39 B123,2013-06-15 18:21:00,
2013-06-15 12:26:00,79.1,71.2,29.91,SSW,203,4.0,6.0,77,0.00,,,0.00,LWC2 V0.39 B123,2013-06-15 18:26:00,
2013-06-15 12:31:00,78.2,71.1,29.91,SSW,210,4.0,6.0,79,0.00,,,0.00,LWC2 V0.39 B123,2013-06-15 18:31:00,
2013-06-15 12:36:00,77.4,71.1,29.91,SW,221,4.0,7.0,81,0.00,,,0.00,LWC2 V0.39 B123,2013-06-15 18:36:00,
2013-06-15 12:41:00,76.9,71.7,29.92,SSE,163,1.0,3.0,84,0.00,,,0.00,LWC2 V0.39 B123,2013-06-15 18:41:00,
2013-06-15 12:46:00,76.3,71.8,29.92,NNW,334,2.0,4.0,86,0.00,,,0.00,LWC2 V0.39 B123,2013-06-15 18:46:00,
2013-06-15 12:51:00,75.9,71.7,29.92,NW,322,2.0,4.0,87,0.00,,,0.01,LWC2 V0.39 B123,2013-06-15 18:51:00,
2013-06-15 12:56:00,75.7,71.9,29.93,North,353,2.0,3.0,88,0.00,,,0.01,LWC2 V0.39 B123,2013-06-15 18:56:00,
2013-06-15 13:01:00,75.5,72.0,29.95,NNW,332,1.0,7.0,89,0.00,,,0.01,LWC2 V0.39 B123,2013-06-15 19:01:00,
2013-06-15 13:06:00,75.1,71.6,29.95,NNW,336,1.0,3.0,89,0.00,,,0.02,LWC2 V0.39 B123,2013-06-15 19:06:00,
2013-06-15 13:11:00,74.2,70.7,29.95,North,356,0.0,5.0,89,0.00,,,0.02,LWC2 V0.39 B123,2013-06-15 19:11:00,
2013-06-15 13:16:00,73.6,70.5,29.95,East,91,1.0,3.0,90,0.00,,,0.02,LWC2 V0.39 B123,2013-06-15 19:16:00,
2013-06-15 13:21:00,73.1,70.0,29.94,NW,314,3.0,4.0,90,0.00,,,0.02,LWC2 V0.39 B123,2013-06-15 19:21:00,
2013-06-15 13:26:00,72.8,69.7,29.94,North,0,1.0,2.0,90,0.00,,,0.02,LWC2 V0.39 B123,2013-06-15 19:26:00,
2013-06-15 13:31:00,72.6,69.8,29.94,NNW,333,3.0,3.0,91,0.00,,,0.02,LWC2 V0.39 B123,2013-06-15 19:31:00,
2013-06-15 13:36:00,72.4,69.6,29.92,NNE,18,1.0,2.0,91,0.00,,,0.03,LWC2 V0.39 B123,2013-06-15 19:36:00,
2013-06-15 13:41:00,72.2,69.4,29.92,NE,42,0.0,3.0,91,0.08,,,0.03,LWC2 V0.39 B123,2013-06-15 19:41:00,
2013-06-15 13:46:00,72.0,69.5,29.91,NW,316,1.0,2.0,92,0.08,,,0.04,LWC2 V0.39 B123,2013-06-15 19:46:00,
2013-06-15 13:51:00,72.0,69.9,29.91,WNW,301,2.0,2.0,93,0.09,,,0.05,LWC2 V0.39 B123,2013-06-15 19:51:00,
2013-06-15 13:56:00,71.9,69.8,29.91,NW,318,0.0,2.0,93,0.07,,,0.05,LWC2 V0.39 B123,2013-06-15 19:56:00,
2013-06-15 14:01:00,71.7,69.6,29.91,NNW,335,1.0,3.0,93,0.06,,,0.06,LWC2 V0.39 B123,2013-06-15 20:01:00,
2013-06-15 14:06:00,71.6,69.5,29.92,NW,316,0.0,1.0,93,0.07,,,0.06,LWC2 V0.39 B123,2013-06-15 20:06:00,
2013-06-15 14:11:00,71.6,69.5,29.93,NW,314,2.0,2.0,93,0.07,,,0.07,LWC2 V0.39 B123,2013-06-15 20:11:00,
2013-06-15 14:16:00,71.6,69.8,29.93,NNW,328,0.0,3.0,94,0.08,,,0.08,LWC2 V0.39 B123,2013-06-15 20:16:00,
2013-06-15 14:21:00,71.7,69.9,29.94,NW,321,1.0,6.0,94,0.08,,,0.08,LWC2 V0.39 B123,2013-06-15 20:21:00,
2013-06-15 14:26:00,71.7,69.9,29.93,NNW,327,1.0,6.0,94,0.05,,,0.08,LWC2 V0.39 B123,2013-06-15 20:26:00,
2013-06-15 14:31:00,71.6,69.5,29.93,NW,317,1.0,3.0,93,0.04,,,0.09,LWC2 V0.39 B123,2013-06-15 20:31:00,
2013-06-15 14:36:00,71.4,69.3,29.91,North,0,2.0,3.0,93,0.10,,,0.10,LWC2 V0.39 B123,2013-06-15 20:36:00,
2013-06-15 14:41:00,71.4,69.6,29.92,SW,229,0.0,1.0,94,0.08,,,0.10,LWC2 V0.39 B123,2013-06-15 20:41:00,
2013-06-15 14:46:00,71.6,69.8,29.91,NW,326,0.0,1.0,94,0.05,,,0.10,LWC2 V0.39 B123,2013-06-15 20:46:00,
2013-06-15 14:51:00,71.5,69.7,29.90,NE,55,0.0,0.0,94,0.04,,,0.10,LWC2 V0.39 B123,2013-06-15 20:51:00,
2013-06-15 14:56:00,71.4,69.3,29.89,WNW,301,0.0,5.0,93,0.04,,,0.11,LWC2 V0.39 B123,2013-06-15 20:56:00,
2013-06-15 15:01:00,71.5,69.7,29.89,WNW,293,0.0,0.0,94,0.04,,,0.11,LWC2 V0.39 B123,2013-06-15 21:01:00,
2013-06-15 15:06:00,71.6,69.8,29.89,NW,316,0.0,0.0,94,0.04,,,0.11,LWC2 V0.39 B123,2013-06-15 21:06:00,
2013-06-15 15:11:00,71.8,70.0,29.88,NW,318,0.0,0.0,94,0.04,,,0.12,LWC2 V0.39 B123,2013-06-15 21:11:00,
2013-06-15 15:16:00,72.0,70.2,29.87,South,187,0.0,0.0,94,0.04,,,0.12,LWC2 V0.39 B123,2013-06-15 21:16:00,
2013-06-15 15:21:00,72.2,70.4,29.87,SSE,159,0.0,0.0,94,0.04,,,0.12,LWC2 V0.39 B123,2013-06-15 21:21:00,
2013-06-15 15:26:00,72.7,70.9,29.87,SE,137,1.0,2.0,94,0.00,,,0.12,LWC2 V0.39 B123,2013-06-15 21:26:00,
2013-06-15 15:31:00,73.2,71.4,29.87,SSE,163,2.0,3.0,94,0.00,,,0.12,LWC2 V0.39 B123,2013-06-15 21:31:00,
2013-06-15 15:36:00,73.3,71.1,29.87,South,184,0.0,2.0,93,0.00,,,0.12,LWC2 V0.39 B123,2013-06-15 21:36:00,
2013-06-15 15:41:00,73.6,71.4,29.87,SSW,203,2.0,2.0,93,0.00,,,0.12,LWC2 V0.39 B123,2013-06-15 21:41:00,
2013-06-15 15:46:00,73.8,71.3,29.87,SSE,148,0.0,2.0,92,0.00,,,0.12,LWC2 V0.39 B123,2013-06-15 21:46:00,
2013-06-15 15:51:00,74.0,71.5,29.87,ESE,120,1.0,2.0,92,0.00,,,0.12,LWC2 V0.39 B123,2013-06-15 21:51:00,
2013-06-15 15:56:00,74.1,71.6,29.87,SSE,160,0.0,2.0,92,0.00,,,0.12,LWC2 V0.39 B123,2013-06-15 21:56:00,
2013-06-15 16:01:00,74.3,71.8,29.87,South,184,1.0,3.0,92,0.00,,,0.12,LWC2 V0.39 B123,2013-06-15 22:01:00,
2013-06-15 16:06:00,74.4,71.9,29.88,WSW,245,1.0,4.0,92,0.00,,,0.12,LWC2 V0.39 B123,2013-06-15 22:06:00,
2013-06-15 16:11:00,74.4,71.9,29.88,SW,228,3.0,3.0,92,0.00,,,0.12,LWC2 V0.39 B123,2013-06-15 22:11:00,
2013-06-15 16:16:00,74.5,72.3,29.87,SE,138,0.0,2.0,93,0.00,,,0.12,LWC2 V0.39 B123,2013-06-15 22:16:00,
2013-06-15 16:21:00,74.6,72.1,29.87,SSE,153,2.0,5.0,92,0.00,,,0.12,LWC2 V0.39 B123,2013-06-15 22:21:00,
2013-06-15 16:26:00,74.6,72.1,29.86,South,181,2.0,3.0,92,0.00,,,0.12,LWC2 V0.39 B123,2013-06-15 22:26:00,
2013-06-15 16:31:00,74.7,72.2,29.86,SSE,160,1.0,1.0,92,0.00,,,0.12,LWC2 V0.39 B123,2013-06-15 22:31:00,
2013-06-15 16:36:00,74.7,72.2,29.87,ESE,118,1.0,3.0,92,0.00,,,0.12,LWC2 V0.39 B123,2013-06-15 22:36:00,
2013-06-15 16:41:00,74.6,72.1,29.87,SSE,159,3.0,4.0,92,0.00,,,0.12,LWC2 V0.39 B123,2013-06-15 22:41:00,
2013-06-15 16:46:00,74.6,72.1,29.88,ESE,117,0.0,1.0,92,0.00,,,0.12,LWC2 V0.39 B123,2013-06-15 22:46:00,
2013-06-15 16:51:00,74.6,71.8,29.87,SSE,158,2.0,2.0,91,0.00,,,0.12,LWC2 V0.39 B123,2013-06-15 22:51:00,
2013-06-15 16:56:00,74.8,72.0,29.87,ESE,114,1.0,1.0,91,0.00,,,0.12,LWC2 V0.39 B123,2013-06-15 22:56:00,
2013-06-15 17:01:00,74.8,72.0,29.87,ESE,110,0.0,1.0,91,0.00,,,0.12,LWC2 V0.39 B123,2013-06-15 23:01:00,
2013-06-15 17:06:00,74.6,71.8,29.86,SE,126,0.0,2.0,91,0.00,,,0.12,LWC2 V0.39 B123,2013-06-15 23:06:00,
2013-06-15 17:11:00,74.7,71.9,29.86,ESE,119,0.0,0.0,91,0.00,,,0.12,LWC2 V0.39 B123,2013-06-15 23:11:00,
2013-06-15 17:16:00,74.6,71.8,29.86,ESE,121,1.0,2.0,91,0.00,,,0.12,LWC2 V0.39 B123,2013-06-15 23:16:00,
2013-06-15 17:21:00,74.5,71.7,29.87,ESE,115,1.0,2.0,91,0.00,,,0.12,LWC2 V0.39 B123,2013-06-15 23:21:00,
2013-06-15 17:26:00,74.6,72.1,29.87,ESE,103,1.0,3.0,92,0.00,,,0.12,LWC2 V0.39 B123,2013-06-15 23:26:00,
2013-06-15 17:31:00,74.5,72.0,29.86,ESE,119,2.0,2.0,92,0.00,,,0.12,LWC2 V0.39 B123,2013-06-15 23:31:00,
2013-06-15 17:36:00,74.4,71.9,29.87,SE,131,3.0,3.0,92,0.00,,,0.12,LWC2 V0.39 B123,2013-06-15 23:36:00,
2013-06-15 17:41:00,74.3,71.8,29.87,SE,137,3.0,3.0,92,0.00,,,0.12,LWC2 V0.39 B123,2013-06-15 23:41:00,
2013-06-15 17:46:00,74.2,72.0,29.87,SE,136,2.0,4.0,93,0.00,,,0.12,LWC2 V0.39 B123,2013-06-15 23:46:00,
2013-06-15 17:51:00,74.1,71.9,29.86,ESE,103,3.0,4.0,93,0.00,,,0.13,LWC2 V0.39 B123,2013-06-15 23:51:00,
2013-06-15 17:56:00,73.9,71.7,29.86,SE,128,1.0,2.0,93,0.00,,,0.13,LWC2 V0.39 B123,2013-06-15 23:56:00,
2013-06-15 18:01:00,73.9,71.7,29.86,East,101,1.0,3.0,93,0.00,,,0.13,LWC2 V0.39 B123,2013-06-16 00:01:00,
2013-06-15 18:06:00,73.9,72.1,29.87,ESE,117,1.0,1.0,94,0.00,,,0.13,LWC2 V0.39 B123,2013-06-16 00:06:00,
2013-06-15 18:11:00,73.9,72.1,29.87,ESE,118,0.0,3.0,94,0.00,,,0.13,LWC2 V0.39 B123,2013-06-16 00:11:00,
2013-06-15 18:16:00,73.8,71.6,29.86,SE,125,3.0,3.0,93,0.00,,,0.13,LWC2 V0.39 B123,2013-06-16 00:16:00,
2013-06-15 18:21:00,73.8,72.0,29.87,ESE,108,2.0,3.0,94,0.00,,,0.13,LWC2 V0.39 B123,2013-06-16 00:21:00,
2013-06-15 18:26:00,73.6,71.4,29.86,ESE,110,3.0,5.0,93,0.00,,,0.13,LWC2 V0.39 B123,2013-06-16 00:26:00,
2013-06-15 18:31:00,73.7,71.5,29.86,ESE,121,1.0,4.0,93,0.00,,,0.13,LWC2 V0.39 B123,2013-06-16 00:31:00,
2013-06-15 18:36:00,73.6,71.8,29.86,ESE,113,2.0,4.0,94,0.00,,,0.13,LWC2 V0.39 B123,2013-06-16 00:36:00,
2013-06-15 18:41:00,73.6,71.8,29.86,SE,137,2.0,2.0,94,0.00,,,0.13,LWC2 V0.39 B123,2013-06-16 00:41:00,
2013-06-15 18:46:00,73.5,71.7,29.86,ESE,121,3.0,4.0,94,0.00,,,0.13,LWC2 V0.39 B123,2013-06-16 00:46:00,
2013-06-15 18:51:00,73.5,71.7,29.86,SE,142,3.0,4.0,94,0.00,,,0.13,LWC2 V0.39 B123,2013-06-16 00:51:00,
2013-06-15 18:56:00,73.5,71.7,29.86,SE,138,4.0,5.0,94,0.00,,,0.13,LWC2 V0.39 B123,2013-06-16 00:56:00,
2013-06-15 19:01:00,73.5,71.7,29.87,ESE,113,3.0,5.0,94,0.00,,,0.13,LWC2 V0.39 B123,2013-06-16 01:01:00,
2013-06-15 19:06:00,73.5,71.7,29.87,East,100,4.0,5.0,94,0.00,,,0.13,LWC2 V0.39 B123,2013-06-16 01:06:00,
2013-06-15 19:11:00,73.5,71.7,29.87,SE,138,3.0,4.0,94,0.00,,,0.13,LWC2 V0.39 B123,2013-06-16 01:11:00,
2013-06-15 19:16:00,73.6,71.8,29.87,SE,134,1.0,7.0,94,0.00,,,0.13,LWC2 V0.39 B123,2013-06-16 01:16:00,
2013-06-15 19:21:00,73.7,72.2,29.87,ESE,108,3.0,6.0,95,0.00,,,0.13,LWC2 V0.39 B123,2013-06-16 01:21:00,
2013-06-15 19:26:00,73.8,72.3,29.87,ESE,114,2.0,5.0,95,0.00,,,0.13,LWC2 V0.39 B123,2013-06-16 01:26:00,
2013-06-15 19:31:00,73.9,72.4,29.87,SSE,149,3.0,4.0,95,0.00,,,0.13,LWC2 V0.39 B123,2013-06-16 01:31:00,
2013-06-15 19:36:00,73.9,72.4,29.87,SE,142,3.0,6.0,95,0.00,,,0.13,LWC2 V0.39 B123,2013-06-16 01:36:00,
2013-06-15 19:41:00,73.9,72.4,29.87,ESE,114,2.0,4.0,95,0.00,,,0.13,LWC2 V0.39 B123,2013-06-16 01:41:00,
2013-06-15 19:46:00,74.0,72.5,29.87,East,101,2.0,5.0,95,0.00,,,0.13,LWC2 V0.39 B123,2013-06-16 01:46:00,
2013-06-15 19:51:00,74.0,72.5,29.88,SE,125,4.0,4.0,95,0.00,,,0.13,LWC2 V0.39 B123,2013-06-16 01:51:00,
2013-06-15 19:56:00,73.9,72.4,29.88,SE,132,3.0,6.0,95,0.00,,,0.13,LWC2 V0.39 B123,2013-06-16 01:56:00,
2013-06-15 20:01:00,73.9,72.4,29.88,ESE,112,3.0,5.0,95,0.00,,,0.13,LWC2 V0.39 B123,2013-06-16 02:01:00,
2013-06-15 20:06:00,73.9,72.4,29.89,ESE,105,3.0,3.0,95,0.00,,,0.13,LWC2 V0.39 B123,2013-06-16 02:06:00,
2013-06-15 20:11:00,73.9,72.4,29.89,ESE,110,2.0,4.0,95,0.00,,,0.13,LWC2 V0.39 B123,2013-06-16 02:11:00,
2013-06-15 20:16:00,73.9,72.4,29.89,SE,125,2.0,5.0,95,0.00,,,0.13,LWC2 V0.39 B123,2013-06-16 02:16:00,
2013-06-15 20:21:00,73.8,72.3,29.89,ESE,122,1.0,4.0,95,0.00,,,0.13,LWC2 V0.39 B123,2013-06-16 02:21:00,
2013-06-15 20:26:00,73.7,72.2,29.89,SSE,149,2.0,3.0,95,0.00,,,0.13,LWC2 V0.39 B123,2013-06-16 02:26:00,
2013-06-15 20:31:00,73.7,72.2,29.89,ESE,115,2.0,5.0,95,0.00,,,0.13,LWC2 V0.39 B123,2013-06-16 02:31:00,
2013-06-15 20:36:00,73.6,72.4,29.89,ESE,122,3.0,3.0,96,0.00,,,0.13,LWC2 V0.39 B123,2013-06-16 02:36:00,
2013-06-15 20:41:00,73.5,72.3,29.89,ESE,108,1.0,3.0,96,0.00,,,0.13,LWC2 V0.39 B123,2013-06-16 02:41:00,
2013-06-15 20:46:00,73.5,72.3,29.89,SE,138,1.0,3.0,96,0.00,,,0.13,LWC2 V0.39 B123,2013-06-16 02:46:00,
2013-06-15 20:51:00,73.4,72.2,29.89,SE,128,1.0,2.0,96,0.00,,,0.13,LWC2 V0.39 B123,2013-06-16 02:51:00,
2013-06-15 20:56:00,73.4,72.2,29.90,ESE,114,1.0,1.0,96,0.00,,,0.13,LWC2 V0.39 B123,2013-06-16 02:56:00,
2013-06-15 21:01:00,73.4,72.2,29.90,SE,134,1.0,1.0,96,0.00,,,0.13,LWC2 V0.39 B123,2013-06-16 03:01:00,
2013-06-15 21:06:00,73.3,72.1,29.90,ESE,110,0.0,3.0,96,0.00,,,0.13,LWC2 V0.39 B123,2013-06-16 03:06:00,
2013-06-15 21:11:00,73.3,72.1,29.90,ESE,115,1.0,1.0,96,0.00,,,0.13,LWC2 V0.39 B123,2013-06-16 03:11:00,
2013-06-15 21:16:00,73.2,72.0,29.90,SE,137,2.0,2.0,96,0.00,,,0.13,LWC2 V0.39 B123,2013-06-16 03:16:00,
2013-06-15 21:21:00,73.2,72.0,29.90,ESE,119,1.0,1.0,96,0.00,,,0.13,LWC2 V0.39 B123,2013-06-16 03:21:00,
2013-06-15 21:26:00,73.2,72.0,29.91,ESE,123,3.0,3.0,96,0.00,,,0.13,LWC2 V0.39 B123,2013-06-16 03:26:00,
2013-06-15 21:31:00,73.2,72.0,29.91,ESE,118,1.0,2.0,96,0.00,,,0.13,LWC2 V0.39 B123,2013-06-16 03:31:00,
2013-06-15 21:36:00,73.1,71.9,29.91,SSE,148,0.0,1.0,96,0.00,,,0.13,LWC2 V0.39 B123,2013-06-16 03:36:00,
2013-06-15 21:41:00,73.0,71.8,29.91,ESE,123,0.0,1.0,96,0.00,,,0.13,LWC2 V0.39 B123,2013-06-16 03:41:00,
2013-06-15 21:46:00,73.0,71.8,29.91,South,171,2.0,2.0,96,0.00,,,0.13,LWC2 V0.39 B123,2013-06-16 03:46:00,
2013-06-15 21:51:00,73.0,71.5,29.91,South,172,0.0,4.0,95,0.00,,,0.13,LWC2 V0.39 B123,2013-06-16 03:51:00,
2013-06-15 21:56:00,73.0,71.5,29.91,SE,129,1.0,3.0,95,0.00,,,0.13,LWC2 V0.39 B123,2013-06-16 03:56:00,
2013-06-15 22:01:00,72.9,71.4,29.91,ESE,119,1.0,2.0,95,0.00,,,0.13,LWC2 V0.39 B123,2013-06-16 04:01:00,
2013-06-15 22:02:00,73.0,71.5,29.91,SE,127,1.0,2.0,95,0.00,,,0.13,LWC2 V0.39 B123,2013-06-16 04:02:00,
2013-06-15 22:04:00,72.9,71.4,29.91,SSE,160,2.0,3.0,95,0.00,,,0.13,LWC2 V0.39 B123,2013-06-16 04:04:00,
2013-06-15 22:05:00,72.9,71.4,29.91,SE,132,1.0,3.0,95,0.00,,,0.13,LWC2 V0.39 B123,2013-06-16 04:05:00,
2013-06-15 22:08:00,72.9,71.4,29.91,SE,145,1.0,3.0,95,0.00,,,0.13,LWC2 V0.39 B123,2013-06-16 04:08:00,
2013-06-15 22:13:00,72.9,71.1,29.91,SE,143,2.0,3.0,94,0.00,,,0.13,LWC2 V0.39 B123,2013-06-16 04:13:00,
2013-06-15 22:18:00,72.8,71.0,29.91,SE,145,1.0,4.0,94,0.00,,,0.13,LWC2 V0.39 B123,2013-06-16 04:18:00,
2013-06-15 22:23:00,72.8,71.0,29.91,SE,124,2.0,4.0,94,0.00,,,0.13,LWC2 V0.39 B123,2013-06-16 04:23:00,
2013-06-15 22:28:00,72.8,71.0,29.91,SE,136,3.0,4.0,94,0.00,,,0.13,LWC2 V0.39 B123,2013-06-16 04:28:00,
2013-06-15 22:33:00,72.8,71.0,29.91,SSE,160,2.0,5.0,94,0.00,,,0.13,LWC2 V0.39 B123,2013-06-16 04:33:00,
2013-06-15 22:38:00,72.7,70.9,29.91,ESE,121,3.0,3.0,94,0.00,,,0.13,LWC2 V0.39 B123,2013-06-16 04:38:00,
2013-06-15 22:43:00,72.6,70.8,29.91,SE,136,1.0,3.0,94,0.00,,,0.13,LWC2 V0.39 B123,2013-06-16 04:43:00,
2013-06-15 22:48:00,72.5,70.7,29.90,ESE,114,1.0,5.0,94,0.00,,,0.13,LWC2 V0.39 B123,2013-06-16 04:48:00,
2013-06-15 22:53:00,72.5,70.7,29.90,SSE,154,2.0,5.0,94,0.00,,,0.13,LWC2 V0.39 B123,2013-06-16 04:53:00,
2013-06-15 22:58:00,72.4,70.6,29.90,SE,132,1.0,5.0,94,0.00,,,0.00,LWC2 V0.39 B123,2013-06-16 04:58:00,
2013-06-15 23:03:00,72.5,70.7,29.90,SE,128,3.0,4.0,94,0.00,,,0.00,LWC2 V0.39 B123,2013-06-16 05:03:00,
2013-06-15 23:08:00,72.5,70.7,29.90,SE,134,3.0,5.0,94,0.00,,,0.00,LWC2 V0.39 B123,2013-06-16 05:08:00,
2013-06-15 23:13:00,72.6,70.8,29.90,ESE,123,1.0,3.0,94,0.00,,,0.00,LWC2 V0.39 B123,2013-06-16 05:13:00,
2013-06-15 23:18:00,72.5,70.7,29.90,SE,135,4.0,4.0,94,0.00,,,0.00,LWC2 V0.39 B123,2013-06-16 05:18:00,
2013-06-15 23:23:00,72.4,70.6,29.89,SE,143,5.0,7.0,94,0.00,,,0.00,LWC2 V0.39 B123,2013-06-16 05:23:00,
2013-06-15 23:28:00,72.4,70.6,29.89,ESE,122,2.0,3.0,94,0.00,,,0.00,LWC2 V0.39 B123,2013-06-16 05:28:00,
2013-06-15 23:33:00,72.4,70.6,29.89,ESE,121,2.0,3.0,94,0.00,,,0.00,LWC2 V0.39 B123,2013-06-16 05:33:00,
2013-06-15 23:38:00,72.4,70.6,29.89,South,177,2.0,2.0,94,0.00,,,0.00,LWC2 V0.39 B123,2013-06-16 05:38:00,
2013-06-15 23:43:00,72.4,70.6,29.89,SE,127,2.0,6.0,94,0.00,,,0.00,LWC2 V0.39 B123,2013-06-16 05:43:00,
2013-06-15 23:48:00,72.3,70.5,29.89,South,169,4.0,4.0,94,0.00,,,0.00,LWC2 V0.39 B123,2013-06-16 05:48:00,
2013-06-15 23:53:00,72.2,70.4,29.88,ESE,121,3.0,4.0,94,0.00,,,0.00,LWC2 V0.39 B123,2013-06-16 05:53:00,
2013-06-15 23:58:00,72.2,70.4,29.88,SE,138,2.0,6.0,94,0.00,,,0.00,LWC2 V0.39 B123,2013-06-16 05:58:00,